Location: Great Snoring
(52.8667°N, 0.8833°E)
Time: 19:37:39
(UTC+00:00)

Terra - Pass Details

Date: 19 May 2025
Orbit: 690 x 691 km, 98.0° (Epoch: 21 June)

Event Time Altitude Azimuth Distance (km) Brightness Sun altitude
Exits shadow 20:50:11 - 173° (S) 2,774 4.4 -7.1°
Reaches altitude 10° 20:51:46 10° 176° (S) 2,140 3.9 -7.3°
Maximum altitude 20:56:25 64° 258° (WSW) 768 2.2 -7.8°
Drops below altitude 10° 21:01:06 10° 340° (NNW) 2,157 5.7 -8.2°
Sets 21:03:23 0° 344° (NNW) 3,078 6.5 -8.4°
